Home   Weather   Jastrzębie Zdrój   Past weeks

Flag for Poland Past Weather in Jastrzębie Zdrój, Poland — Yesterday and Last 2 Weeks

Now
49 °F

Sunny.


Feels Like: 46 °F
Forecast: 40 / 52 °F
Wind: 8 mph from Southwest

Location: Ostrava / Mosnov

Current Time: Feb 27, 2017 at 12:33:42 pm

Latest Report: Feb 27, 2017 at 11:00 am


Visibility: 19 mi

Pressure: 29.92 "Hg

Humidity: 46%

Dew Point: 29 °F

Location of Jastrzębie ZdrójLocation

Past Weather in Jastrzębie Zdrój — Graph

°F

Jastrzębie Zdrój Temperature Yesterday

Maximum temperature yesterday: 44 °F (at 2:00 pm)
Minimum temperature yesterday: 36 °F (at 12:00 am)
Average temperature yesterday: 40 °F

High & Low Weather Summary for the Past Weeks

 TemperatureHumidityPressure
High55 °F (Feb 23, 8:00 pm)100% (Feb 18, 10:00 pm)30.71 "Hg (Feb 18, 10:00 pm)
Low18 °F (Feb 14, 8:00 am)29% (Feb 15, 2:11 pm)29.32 "Hg (Feb 24, 12:00 am)
Average36 °F80%30.18 "Hg
* Reported Feb 12 11:00 am — Feb 27 11:00 am, Jastrzębie Zdrój, Weather by CustomWeather, © 2017

Note: Actual official high and low records may vary slightly from our data, if they occured in-between our weather recording intervals... More about our weather records

Advertising

Jastrzębie Zdrój Weather History for the Previous 24 Hours

Scroll right to see more
 ConditionsComfort  
Time TempWeatherWind HumidityBarometerVisibility
11:00 am
Mon, Feb 27
49 °FSunny.8 mph46%29.92 "Hg19 mi
10:00 am48 °FPassing clouds.7 mph47%29.95 "Hg19 mi
9:00 am42 °FPassing clouds.5 mph57%29.98 "Hg19 mi
8:00 am37 °FPassing clouds.5 mph68%30.00 "Hg19 mi
7:00 am32 °FScattered clouds.3 mph80%30.01 "Hg19 mi
6:00 am33 °FPassing clouds.N/A72%30.02 "Hg19 mi
5:00 am37 °FPassing clouds.N/A65%30.03 "Hg19 mi
4:00 am36 °FPassing clouds.2 mph64%30.03 "Hg16 mi
3:00 am37 °FClear.N/A62%30.02 "Hg16 mi
2:00 am36 °FClear.3 mph65%30.02 "Hg16 mi
1:00 am37 °FPassing clouds.5 mph64%30.03 "Hg16 mi
12:00 am35 °FPassing clouds.5 mph66%30.03 "Hg16 mi
11:00 pm
Sun, Feb 26
37 °FPassing clouds.6 mph65%30.02 "Hg16 mi
10:00 pm36 °FPassing clouds.3 mph63%30.02 "Hg16 mi
9:00 pm41 °FPassing clouds.2 mph57%30.02 "Hg19 mi
8:00 pm42 °FPassing clouds.8 mph50%30.01 "Hg19 mi
7:00 pm43 °FPassing clouds.9 mph50%30.00 "Hg19 mi
6:00 pm42 °FPassing clouds.7 mph52%30.01 "Hg19 mi
5:00 pm43 °FOvercast.6 mph49%30.01 "Hg19 mi
4:00 pm42 °FOvercast.5 mph56%30.02 "Hg19 mi
3:00 pm43 °FOvercast.6 mph52%30.02 "Hg19 mi
2:00 pm44 °FOvercast.5 mph45%30.03 "Hg19 mi
1:00 pm42 °FOvercast.7 mph44%30.05 "Hg19 mi
12:00 pm42 °FOvercast.7 mph46%30.08 "Hg19 mi
Weather by CustomWeather, © 2017

See weather overviewHow to use our weather pages